weather.gov     
National Weather Service

Terminal Aerodrome Forecast
NWS Homepage
This page is being discontinued on March 12, 2014.
The same data is available at this site. Please update your bookmarks.
Thank you, and we apologize for the inconvenience.
Please send an email to SR-SRH.Webmaster@noaa.gov with any concerns.


Current Version
Previous Version:    01  02  03  04  05  06  07  08  09  10  11  12  13  14  15  16  17  18  19  20  21  22  23  24  25  26  27  28  29  30  
   31  
[Printable]
078
FTUS44 KMAF 202300
TAFCNM
TAF
KCNM 202324Z 2100/2124 11011KT P6SM -SHRA SCT025 BKN060
      TEMPO 2100/2104 VRB15G25KT 2SM TSRA BR BKN015 OVC040CB
     FM210400 13008KT 6SM -SHRA OVC035
      TEMPO 2104/2108 4SM -TSRA BR BKN015 OVC035CB
     FM210800 15006KT 5SM BR OVC015
      TEMPO 2112/2116 2SM -SHRA BR OVC010=


U.S. Dept. of Commerce
NOAA National Weather Service
1325 East West Highway
Silver Spring, MD 20910
E-mail: w-nws.webmaster@noaa.gov
Page last modified: May 16, 2007
NATIONAL WEATHER SERVICE: for Safety, for Work, for Fun - FOR LIFE